This is the latest recevied weather packets stored in our database for station/object KR8N. If no packets are shown the sender has not sent any weather packets the latest 10 day(s).
| Time | Temp. | Humidity | Pressure | Rain* | Wind** | Luminosity | Snow |
|---|---|---|---|---|---|---|---|
| 1777110115 | 11.11° C | 85% | 1013.7 hPa | 0 mm | - | 0 W/m² | - |
| 1777109811 | 11.11° C | 84% | 1013.5 hPa | 0 mm | - | 0 W/m² | - |
| 1777109508 | 11.11° C | 83% | 1013.3 hPa | 0 mm | - | 0 W/m² | - |
| 1777109203 | 11.11° C | 83% | 1013.3 hPa | 0 mm | - | 0 W/m² | - |
| 1777108898 | 11.11° C | 84% | 1013.3 hPa | 0 mm | - | 0 W/m² | - |
| 1777108596 | 10.56° C | 85% | 1013.2 hPa | 0 mm | - | 0 W/m² | - |
| 1777108291 | 11.11° C | 85% | 1013 hPa | 0 mm | - | 0 W/m² | - |
| 1777107987 | 11.11° C | 85% | 1013.4 hPa | 0 mm | - | 0 W/m² | - |
| 1777107683 | 11.11° C | 85% | 1013.3 hPa | 0 mm | - | 0 W/m² | - |
| 1777107383 | 11.11° C | 85% | 1013.2 hPa | 0 mm | - | 0 W/m² | - |
| 1777107080 | 10.56° C | 86% | 1013 hPa | 0 mm | - | 0 W/m² | - |
| 1777106775 | 10.56° C | 88% | 1013.4 hPa | 0 mm | - | 0 W/m² | - |
| 1777106472 | 10.56° C | 88% | 1013.3 hPa | 0 mm | - | 0 W/m² | - |
| 1777106168 | 10.56° C | 86% | 1013.2 hPa | 0 mm | - | 0 W/m² | - |
| 1777105863 | 10.56° C | 86% | 1012.9 hPa | 0 mm | - | 0 W/m² | - |
| 1777105561 | 11.11° C | 85% | 1012.8 hPa | 0 mm | - | 0 W/m² | - |
| 1777105257 | 11.67° C | 84% | 1013 hPa | 0 mm | - | 0 W/m² | - |
| 1777104953 | 11.67° C | 83% | 1012.9 hPa | 0 mm | - | 0 W/m² | - |
| 1777104649 | 11.67° C | 82% | 1012.9 hPa | 0 mm | - | 0 W/m² | - |
| 1777104346 | 12.22° C | 80% | 1013 hPa | 0 mm | - | 0 W/m² | - |
| 1777104042 | 12.22° C | 79% | 1012.9 hPa | 0 mm | - | 0 W/m² | - |
| 1777103739 | 11.67° C | 81% | 1012.9 hPa | 0 mm | - | 0 W/m² | - |
| 1777103436 | 11.67° C | 83% | 1013.2 hPa | 0 mm | - | 0 W/m² | - |
| 1777103133 | 11.67° C | 83% | 1013 hPa | 0 mm | - | 0 W/m² | - |
* Rain latest hour (hover to see other rain measurements)
** Current wind speed in m/s (hover to see current wind gust speed)